Home   Weather   Alexandroupoli   Past weeks

Flag for Greece Past Weather in Alexandroupoli, Greece — Yesterday and Last 2 Weeks

57 °F

Passing clouds.

Feels Like: 54 °F
Forecast: 48 / 65 °F
Wind: 13 mph from Northeast

Location: Alexandroupoli Airport

Current Time: Oct 25, 2016 at 8:31:56 PM

Latest Report: Oct 25, 2016 at 7:50 PM

Visibility: N/A

Pressure: 30.30 "Hg

Humidity: 72%

Dew Point: 48 °F

Location of AlexandroupoliLocation

Past Weather in Alexandroupoli — Graph


Alexandroupoli Temperature Yesterday

Maximum temperature yesterday: 70 °F (at 2:50 PM)
Minimum temperature yesterday: 57 °F (at 6:50 AM)
Average temperature yesterday: 63 °F

High & Low Weather Summary for the Past Weeks

High75 °F (Oct 12, 1:50 PM)100% (Oct 12, 7:50 AM)30.39 "Hg (Oct 12, 7:50 AM)
Low45 °F (Oct 14, 5:20 AM)43% (Oct 13, 2:50 PM)29.65 "Hg (Oct 12, 4:20 AM)
Average60 °F70%30.12 "Hg
* Reported Oct 10 6:20 PM — Oct 25 6:50 PM, Alexandroupoli, Weather by CustomWeather, © 2016

Note: Actual official high and low records may vary slightly from our data, if they occured in-between our weather recording intervals... More about our weather records


Alexandroupoli Weather History for the Previous 24 Hours

Scroll right to see more
Time TempWeatherWind HumidityBarometerVisibility
6:50 PM
Tue, Oct 25
59 °FPassing clouds.9 mph72%30.30 "HgN/A
6:20 PM61 °FPassing clouds.12 mph68%30.30 "HgN/A
5:50 PM61 °FScattered clouds.12 mph68%30.30 "HgN/A
5:20 PM61 °FPassing clouds.14 mph72%30.30 "HgN/A
4:50 PM61 °FPassing clouds.16 mph72%30.30 "HgN/A
4:20 PM64 °FPassing clouds.20 mph60%30.33 "HgN/A
3:50 PM64 °FPassing clouds.13 mph60%30.33 "HgN/A
3:20 PM64 °FPassing clouds.17 mph60%30.33 "HgN/A
2:50 PM64 °FPassing clouds.15 mph60%30.33 "HgN/A
1:50 PM64 °FPassing clouds.15 mph43%30.36 "HgN/A
1:20 PM64 °FPassing clouds.13 mph49%30.36 "HgN/A
12:50 PM63 °FPassing clouds.13 mph52%30.36 "HgN/A
12:20 PM63 °FPassing clouds.12 mph52%30.39 "HgN/A
11:50 AM63 °FPassing clouds.15 mph52%30.39 "HgN/A
11:20 AM61 °FPassing clouds.14 mph63%30.39 "HgN/A
10:50 AM59 °FPassing clouds.15 mph68%30.39 "HgN/A
10:20 AM61 °FScattered clouds.16 mph63%30.39 "HgN/A
9:50 AM57 °FScattered clouds.13 mph67%30.39 "HgN/A
9:20 AM57 °FScattered clouds.12 mph67%30.36 "HgN/A
8:50 AM55 °FScattered clouds.14 mph72%30.36 "HgN/A
8:20 AM55 °FScattered clouds.15 mph72%30.36 "HgN/A
7:50 AM55 °FScattered clouds.15 mph72%30.36 "HgN/A
7:20 AM55 °FPassing clouds.13 mph77%30.33 "HgN/A
6:50 AM55 °FPassing clouds.13 mph77%30.33 "HgN/A
6:20 AM55 °FPassing clouds.16 mph77%30.33 "HgN/A
5:50 AM55 °FPassing clouds.15 mph77%30.33 "HgN/A
5:20 AM55 °FPassing clouds.12 mph77%30.33 "HgN/A
4:50 AM55 °FPassing clouds.14 mph77%30.33 "HgN/A
4:20 AM55 °FPassing clouds.14 mph77%30.33 "HgN/A
3:50 AM55 °FPassing clouds.13 mph77%30.33 "HgN/A
3:20 AM55 °FPassing clouds.9 mph82%30.36 "HgN/A
2:50 AM55 °FPassing clouds.9 mph82%30.36 "HgN/A
1:50 AM55 °FPassing clouds.10 mph82%30.36 "HgN/A
1:20 AM55 °FPassing clouds.12 mph82%30.36 "HgN/A
12:50 AM55 °FPassing clouds.12 mph82%30.36 "HgN/A
12:20 AM57 °FPassing clouds.9 mph77%30.36 "HgN/A
11:50 PM
Mon, Oct 24
57 °FPassing clouds.9 mph77%30.36 "HgN/A
11:20 PM57 °FPassing clouds.9 mph77%30.33 "HgN/A
10:50 PM57 °FPassing clouds.10 mph77%30.33 "HgN/A
10:20 PM59 °FPassing clouds.6 mph77%30.33 "HgN/A
9:50 PM59 °FPassing clouds.13 mph77%30.33 "HgN/A
9:20 PM61 °FPassing clouds.15 mph72%30.33 "HgN/A
8:50 PM61 °FPassing clouds.15 mph72%30.33 "HgN/A
8:20 PM61 °FPassing clouds.17 mph77%30.30 "HgN/A
Weather by CustomWeather, © 2016

See weather overviewHow to use our weather pages